When you browse on this site, cookies collect data to enhance your experience and personalize the content and advertising you see.
Visit our Privacy Policy to learn more. By continuing to use the site, you agree to this use of cookies and data.
  • In France
  • List of Countries
  • For 7 days
  • Water Temperature
  • Satellite Maps
  • Weather Map
  • Weather Widgets
  • user-avatar
    Login

    Hourly Weather Río Gallegos

    Today, 10 December, Monday

    Time Temperature Precipitation Wind Pressure Humidity
    00:00 +13°C° 0.1 mm 3 mps 748 mmHg 67%
    01:00 +13°C° 0.1 mm 3 mps 747 mmHg 69%
    02:00 +12°C° 0.2 mm 4 mps 747 mmHg 73%
    03:00 +12°C° 0.2 mm 4 mps 746 mmHg 77%
    04:00 +10°C° 0.2 mm 5 mps 745 mmHg 80%
    05:00 +12°C° 0 mm 5 mps 745 mmHg 79%
    06:00 +12°C° 0 mm 5 mps 745 mmHg 77%
    07:00 +12°C° 0 mm 5 mps 744 mmHg 76%
    08:00 +13°C° 0 mm 5 mps 744 mmHg 72%
    09:00 +14°C° 0 mm 4 mps 744 mmHg 68%
    10:00 +16°C° 0 mm 3 mps 744 mmHg 63%
    11:00 +15°C° 0.3 mm 4 mps 744 mmHg 62%
    12:00 +16°C° 0.3 mm 5 mps 743 mmHg 60%
    13:00 +17°C° 0.3 mm 5 mps 743 mmHg 58%
    14:00 +17°C° 1.4 mm 6 mps 743 mmHg 53%
    15:00 +17°C° 1.4 mm 7 mps 743 mmHg 49%
    16:00 +17°C° 1.4 mm 7 mps 743 mmHg 45%
    17:00 +17°C° 0.1 mm 8 mps 744 mmHg 46%
    18:00 +16°C° 0.1 mm 8 mps 744 mmHg 47%
    19:00 +15°C° 0.1 mm 8 mps 744 mmHg 48%
    20:00 +13°C° 0 mm 8 mps 745 mmHg 51%
    21:00 +12°C° 0 mm 8 mps 746 mmHg 55%
    22:00 +11°C° 0 mm 8 mps 746 mmHg 58%
    23:00 +10°C° 0 mm 9 mps 747 mmHg 60%

    Tomorrow, 11 December, Tuesday

    Time Temperature Precipitation Wind Pressure Humidity
    00:00 +9°C° 0 mm 10 mps 747 mmHg 62%
    01:00 +8°C° 0 mm 11 mps 748 mmHg 64%
    02:00 +7°C° 0 mm 11 mps 749 mmHg 63%
    03:00 +5°C° 0 mm 12 mps 749 mmHg 62%
    04:00 +4°C° 0 mm 12 mps 750 mmHg 61%
    05:00 +5°C° 0 mm 12 mps 751 mmHg 57%
    06:00 +7°C° 0 mm 12 mps 752 mmHg 54%
    07:00 +7°C° 0 mm 12 mps 752 mmHg 50%
    08:00 +8°C° 0 mm 11 mps 753 mmHg 49%
    09:00 +9°C° 0 mm 10 mps 753 mmHg 47%
    10:00 +11°C° 0 mm 10 mps 753 mmHg 46%
    11:00 +11°C° 0 mm 9 mps 753 mmHg 45%
    12:00 +12°C° 0 mm 9 mps 753 mmHg 44%
    13:00 +12°C° 0 mm 8 mps 753 mmHg 43%
    14:00 +13°C° 0 mm 8 mps 753 mmHg 41%
    15:00 +15°C° 0 mm 7 mps 753 mmHg 40%
    16:00 +16°C° 0 mm 7 mps 754 mmHg 39%
    17:00 +15°C° 0.1 mm 6 mps 754 mmHg 43%
    18:00 +14°C° 0.1 mm 5 mps 754 mmHg 47%
    19:00 +13°C° 0.1 mm 5 mps 754 mmHg 51%
    20:00 +13°C° 0.1 mm 5 mps 754 mmHg 53%
    21:00 +13°C° 0.1 mm 5 mps 755 mmHg 55%
    22:00 +12°C° 0.1 mm 5 mps 755 mmHg 58%
    23:00 +12°C° 0 mm 5 mps 755 mmHg 58%

    Day after tomorrow, 12 December, Wednesday

    Time Temperature Precipitation Wind Pressure Humidity
    00:00 +12°C° 0 mm 5 mps 754 mmHg 58%
    01:00 +11°C° 0 mm 6 mps 754 mmHg 59%
    02:00 +10°C° 0 mm 5 mps 754 mmHg 62%
    03:00 +10°C° 0 mm 5 mps 754 mmHg 64%
    04:00 +11°C° 0 mm 4 mps 753 mmHg 67%
    05:00 +12°C° 0 mm 4 mps 753 mmHg 62%
    06:00 +13°C° 0 mm 4 mps 753 mmHg 57%
    07:00 +14°C° 0 mm 4 mps 753 mmHg 52%
    08:00 +14°C° 0.1 mm 3 mps 752 mmHg 52%
    09:00 +14°C° 0.1 mm 3 mps 752 mmHg 52%
    10:00 +14°C° 0.1 mm 3 mps 751 mmHg 52%
    11:00 +16°C° 0.1 mm 3 mps 751 mmHg 51%
    12:00 +17°C° 0.1 mm 3 mps 750 mmHg 49%
    13:00 +17°C° 0.1 mm 3 mps 750 mmHg 47%
    14:00 +17°C° 0.1 mm 4 mps 749 mmHg 49%
    15:00 +17°C° 0.1 mm 4 mps 749 mmHg 51%
    16:00 +15°C° 0.1 mm 5 mps 748 mmHg 54%
    17:00 +15°C° 0.1 mm 4 mps 748 mmHg 56%
    18:00 +14°C° 0.1 mm 4 mps 748 mmHg 59%
    19:00 +14°C° 0.1 mm 3 mps 748 mmHg 62%
    20:00 +13°C° 0 mm 3 mps 748 mmHg 64%
    21:00 +12°C° 0 mm 3 mps 748 mmHg 65%
    22:00 +12°C° 0 mm 3 mps 748 mmHg 67%
    23:00 +11°C° 0.2 mm 4 mps 748 mmHg 69%

    13 December, Thursday

    Time Temperature Precipitation Wind Pressure Humidity
    00:00 +10°C° 0.2 mm 5 mps 747 mmHg 71%
    01:00 +9°C° 0.2 mm 6 mps 747 mmHg 73%
    02:00 +9°C° 0.2 mm 7 mps 748 mmHg 71%
    03:00 +7°C° 0.2 mm 8 mps 749 mmHg 70%
    04:00 +7°C° 0.2 mm 9 mps 749 mmHg 68%
    05:00 +7°C° 0 mm 9 mps 750 mmHg 63%
    06:00 +7°C° 0 mm 9 mps 751 mmHg 58%
    07:00 +7°C° 0 mm 10 mps 752 mmHg 54%
    08:00 +8°C° 0 mm 9 mps 752 mmHg 49%
    09:00 +10°C° 0 mm 9 mps 752 mmHg 45%
    10:00 +11°C° 0 mm 9 mps 752 mmHg 41%
    11:00 +12°C° 0 mm 8 mps 752 mmHg 40%
    12:00 +12°C° 0 mm 8 mps 752 mmHg 38%
    13:00 +12°C° 0 mm 8 mps 752 mmHg 37%
    14:00 +12°C° 0 mm 8 mps 752 mmHg 38%
    15:00 +12°C° 0 mm 8 mps 752 mmHg 38%
    16:00 +12°C° 0 mm 8 mps 752 mmHg 39%
    17:00 +11°C° 0 mm 8 mps 753 mmHg 41%
    18:00 +11°C° 0 mm 8 mps 753 mmHg 42%
    19:00 +10°C° 0 mm 8 mps 754 mmHg 44%
    20:00 +9°C° 0 mm 7 mps 754 mmHg 47%
    21:00 +8°C° 0 mm 6 mps 754 mmHg 50%
    22:00 +7°C° 0 mm 5 mps 754 mmHg 53%
    23:00 +7°C° 0 mm 5 mps 754 mmHg 55%

    14 December, Friday

    Time Temperature Precipitation Wind Pressure Humidity
    00:00 +7°C° 0 mm 4 mps 754 mmHg 56%
    01:00 +7°C° 0 mm 4 mps 753 mmHg 57%
    02:00 +7°C° 0 mm 4 mps 753 mmHg 57%
    03:00 +7°C° 0 mm 4 mps 752 mmHg 57%
    04:00 +7°C° 0 mm 4 mps 752 mmHg 56%
    05:00 +8°C° 0 mm 6 mps 751 mmHg 54%
    06:00 +9°C° 0 mm 7 mps 751 mmHg 52%
    07:00 +11°C° 0 mm 8 mps 750 mmHg 51%
    08:00 +12°C° 0 mm 9 mps 750 mmHg 47%
    09:00 +13°C° 0 mm 10 mps 749 mmHg 43%
    10:00 +14°C° 0 mm 11 mps 749 mmHg 40%
    11:00 +16°C° 0 mm 11 mps 748 mmHg 40%
    12:00 +15°C° 0 mm 12 mps 748 mmHg 41%
    13:00 +17°C° 0 mm 12 mps 748 mmHg 41%
    14:00 +17°C° 0 mm 12 mps 748 mmHg 44%
    15:00 +15°C° 0 mm 12 mps 748 mmHg 46%
    16:00 +15°C° 0 mm 12 mps 748 mmHg 48%
    17:00 +14°C° 0.1 mm 11 mps 749 mmHg 51%
    18:00 +14°C° 0.1 mm 10 mps 749 mmHg 54%
    19:00 +13°C° 0.1 mm 9 mps 749 mmHg 56%
    20:00 +13°C° 0.1 mm 8 mps 749 mmHg 58%
    21:00 +12°C° 0.1 mm 7 mps 749 mmHg 60%
    22:00 +13°C° 0.1 mm 5 mps 749 mmHg 61%
    23:00 +13°C° 0.3 mm 6 mps 748 mmHg 63%

    15 December, Saturday

    Time Temperature Precipitation Wind Pressure Humidity
    00:00 +13°C° 0.3 mm 6 mps 747 mmHg 64%
    01:00 +13°C° 0.3 mm 6 mps 747 mmHg 65%
    02:00 +13°C° 0 mm 6 mps 746 mmHg 64%
    03:00 +12°C° 0 mm 7 mps 746 mmHg 62%
    04:00 +12°C° 0 mm 7 mps 745 mmHg 60%
    05:00 +15°C° 0 mm 7 mps 744 mmHg 56%
    06:00 +16°C° 0 mm 7 mps 744 mmHg 53%
    07:00 +17°C° 0 mm 7 mps 743 mmHg 49%
    08:00 +18°C° 0.1 mm 8 mps 742 mmHg 47%
    09:00 +20°C° 0.1 mm 8 mps 741 mmHg 45%
    10:00 +21°C° 0.1 mm 9 mps 740 mmHg 43%
    11:00 +20°C° 0.8 mm 8 mps 739 mmHg 49%
    12:00 +18°C° 0.8 mm 7 mps 739 mmHg 55%
    13:00 +17°C° 0.8 mm 6 mps 738 mmHg 61%
    14:00 +19°C° 0.4 mm 6 mps 738 mmHg 60%
    15:00 +19°C° 0.4 mm 6 mps 737 mmHg 60%
    16:00 +19°C° 0.4 mm 6 mps 737 mmHg 59%
    17:00 +17°C° 0.1 mm 7 mps 737 mmHg 58%
    18:00 +17°C° 0.1 mm 7 mps 736 mmHg 57%
    19:00 +17°C° 0.1 mm 8 mps 736 mmHg 55%
    20:00 +15°C° 0 mm 9 mps 736 mmHg 58%
    21:00 +13°C° 0 mm 10 mps 736 mmHg 61%
    22:00 +11°C° 0 mm 11 mps 737 mmHg 64%
    23:00 +11°C° 0 mm 11 mps 737 mmHg 66%
    Show more